CW1459 Weather Reports


Display with metric or nautical units.
time (UTC)temp
F
wind
direction
speed
MPH
gust
MPH
rain 1hr
in
rain 24hr
in
rain mn
in
humidity
%
barometer
mb
20200220131316 29 21 0.0 2.0 0.00 0.00 0.00 62 1030.2
20200220130311 29 30 0.0 0.0 0.00 0.00 0.00 63 1030.2
20200220125325 28 26 0.0 0.0 0.00 0.00 0.00 65 1030.0
20200220124315 28 13 0.0 3.0 0.00 0.00 0.00 65 1029.9
20200220123323 28 36 0.0 1.0 0.00 0.00 0.00 65 1030.0
20200220122311 28 13 0.0 0.0 0.00 0.00 0.00 67 1030.1
20200220121325 28 28 0.0 0.0 0.00 0.00 0.00 66 1029.9
20200220120313 28 28 0.0 0.0 0.00 0.00 0.00 66 1030.1
20200220115324 28 28 0.0 0.0 0.00 0.00 0.00 68 1029.9
20200220114312 28 33 0.0 1.0 0.00 0.00 0.00 69 1029.8
20200220113325 27 35 0.0 3.0 0.00 0.00 0.00 68 1029.6
20200220112317 28 22 0.0 0.0 0.00 0.00 0.00 68 1029.7
20200220111330 28 20 0.0 0.0 0.00 0.00 0.00 69 1029.6
20200220110322 28 20 0.0 0.0 0.00 0.00 0.00 69 1029.7
20200220105315 28 20 0.0 0.0 0.00 0.00 0.00 67 1029.5
20200220104325 28 20 0.0 0.0 0.00 0.00 0.00 67 1029.4
20200220103319 28 20 0.0 0.0 0.00 0.00 0.00 66 1029.3
20200220101321 28 20 0.0 0.0 0.00 0.00 0.00 66 1028.8
20200220100332 28 20 0.0 0.0 0.00 0.00 0.00 68 1028.9
20200220095323 28 19 0.0 0.0 0.00 0.00 0.00 69 1028.6
20200220094316 27 19 0.0 0.0 0.00 0.00 0.00 68 1028.8
20200220093328 27 19 0.0 0.0 0.00 0.00 0.00 68 1028.8
20200220092319 28 19 0.0 0.0 0.00 0.00 0.00 68 1028.8
20200220091329 28 19 0.0 0.0 0.00 0.00 0.00 67 1028.8
20200220090317 28 18 0.0 0.0 0.00 0.00 0.00 67 1028.8
20200220085315 28 18 0.0 0.0 0.00 0.00 0.00 69 1028.7
20200220084329 28 18 0.0 0.0 0.00 0.00 0.00 68 1028.8
20200220083317 28 18 0.0 0.0 0.00 0.00 0.00 68 1028.7
20200220082328 28 74 0.0 0.0 0.00 0.00 0.00 67 1028.7
20200220081317 28 75 0.0 0.0 0.00 0.00 0.00 67 1028.5
20200220080314 29 75 0.0 0.0 0.00 0.00 0.00 66 1028.8
20200220075326 29 75 0.0 0.0 0.00 0.00 0.00 65 1028.7
20200220074317 30 75 0.0 0.0 0.00 0.00 0.00 65 1028.8
20200220073325 30 74 0.0 0.0 0.00 0.00 0.00 66 1028.8
20200220072316 30 80 1.0 4.0 0.00 0.00 0.00 67 1028.9
20200220071330 30 80 0.0 0.0 0.00 0.00 0.00 66 1028.9
20200220070319 30 42 0.0 0.0 0.00 0.00 0.00 66 1029.0
20200220065331 30 336 0.0 0.0 0.00 0.00 0.00 66 1028.8
20200220064320 30 324 0.0 0.0 0.00 0.00 0.00 66 1029.0
20200220063330 30 311 0.0 0.0 0.00 0.00 0.00 65 1029.0
20200220062326 30 284 0.0 0.0 0.00 0.00 0.00 66 1028.8
20200220061317 30 284 0.0 0.0 0.00 0.00 0.00 66 1028.8
20200220060330 30 284 0.0 0.0 0.00 0.00 0.00 66 1028.4
20200220055317 30 281 0.0 0.0 0.00 0.00 0.00 65 1028.7
20200220054317 30 281 0.0 0.0 0.00 0.00 0.00 65 1028.6
20200220053315 31 281 0.0 0.0 0.00 0.00 0.00 63 1028.7
20200220052326 31 281 0.0 0.0 0.00 0.00 0.00 62 1028.8
20200220051320 31 281 0.0 0.0 0.00 0.00 0.00 62 1028.9
20200220050329 32 281 0.0 0.0 0.00 0.00 0.00 61 1028.7
20200220045328 32 281 0.0 0.0 0.00 0.00 0.00 60 1028.9
20200220044318 32 281 0.0 0.0 0.00 0.00 0.00 60 1028.8
20200220043326 32 281 0.0 0.0 0.00 0.00 0.00 59 1028.7
20200220042319 32 281 0.0 0.0 0.00 0.00 0.00 59 1028.8
20200220041317 32 281 0.0 0.0 0.00 0.00 0.00 59 1028.7
20200220040330 32 283 1.0 3.0 0.00 0.00 0.00 59 1028.7
20200220035319 32 309 0.0 0.0 0.00 0.00 0.00 58 1028.5
20200220034330 32 190 0.0 0.0 0.00 0.00 0.00 58 1028.6
20200220033320 32 190 0.0 0.0 0.00 0.00 0.00 58 1028.6
20200220032315 32 190 0.0 0.0 0.00 0.00 0.00 59 1028.6
20200220031326 33 190 0.0 0.0 0.00 0.00 0.00 57 1028.3
20200220030315 33 209 0.0 0.0 0.00 0.00 0.00 58 1028.2
20200220025324 33 296 0.0 0.0 0.00 0.00 0.00 57 1028.5
20200220024317 33 297 0.0 0.0 0.00 0.00 0.00 57 1028.6
20200220023329 34 297 0.0 0.0 0.00 0.00 0.00 56 1028.6
20200220022321 34 297 0.0 0.0 0.00 0.00 0.00 56 1028.5
20200220021314 34 297 0.0 0.0 0.00 0.00 0.00 56 1028.3
20200220020317 34 297 0.0 0.0 0.00 0.00 0.00 56 1028.4
20200220015328 35 297 0.0 0.0 0.00 0.00 0.00 54 1028.4
20200220014315 35 296 0.0 0.0 0.00 0.00 0.00 54 1028.2
20200220013321 36 296 0.0 0.0 0.00 0.00 0.00 52 1028.0
20200220012315 36 296 0.0 0.0 0.00 0.00 0.00 52 1028.0
20200220011326 37 297 0.0 0.0 0.00 0.00 0.00 50 1028.1
20200220010315 37 315 0.0 0.0 0.00 0.00 0.00 48 1028.1
20200220005326 38 317 0.0 0.0 0.00 0.00 0.00 48 1028.1
20200220004320 38 317 0.0 0.0 0.00 0.00 0.00 46 1027.9
20200220003329 39 309 0.0 0.0 0.00 0.00 0.00 46 1027.8
20200220002318 39 313 0.0 0.0 0.00 0.00 0.00 44 1027.7
20200220001328 40 326 0.0 2.0 0.00 0.00 0.00 44 1027.6
20200220000319 40 321 0.0 4.0 0.00 0.00 0.00 43 1027.6
20200219235310 41 306 1.0 5.0 0.00 0.00 0.00 42 1027.5
20200219234315 42 316 0.0 6.0 0.00 0.00 0.00 41 1027.1
20200219233321 42 346 2.0 8.0 0.00 0.00 0.00 40 1027.0
20200219232325 42 320 5.0 11.0 0.00 0.00 0.00 39 1026.8
20200219224341 44 297 7.0 15.0 0.00 0.00 0.00 36 1026.0
20200219221338 46 344 7.0 12.0 0.00 0.00 0.00 36 1025.9
20200219220317 46 303 10.0 20.0 0.00 0.00 0.00 34 1025.7
20200219215326 47 311 6.0 15.0 0.00 0.02 0.00 35 1025.6
20200219214320 47 306 7.0 13.0 0.00 0.02 0.00 35 1025.7
20200219213327 47 300 8.0 15.0 0.00 0.02 0.00 34 1025.5
20200219212320 47 333 8.0 15.0 0.00 0.02 0.00 33 1025.5
20200219211314 47 300 7.0 16.0 0.00 0.02 0.00 33 1025.4
20200219210322 48 297 8.0 16.0 0.00 0.02 0.00 33 1025.5
20200219205312 47 319 10.0 16.0 0.00 0.02 0.00 33 1025.4
20200219204322 47 349 11.0 19.0 0.00 0.02 0.00 33 1025.4
20200219203312 47 329 15.0 23.0 0.00 0.02 0.00 31 1025.3
20200219202325 48 322 12.0 21.0 0.00 0.02 0.00 32 1025.2
20200219201313 48 350 14.0 26.0 0.00 0.02 0.00 31 1025.2
20200219200326 48 305 9.0 18.0 0.00 0.02 0.00 33 1025.1
20200219195315 48 325 12.0 19.0 0.00 0.02 0.00 33 1025.0
20200219194325 48 318 17.0 23.0 0.00 0.02 0.00 31 1025.0
20200219193318 47 336 12.0 21.0 0.00 0.02 0.00 32 1024.9
20200219192323 47 350 13.0 20.0 0.00 0.02 0.00 32 1024.9
20200219191331 47 327 12.0 19.0 0.00 0.02 0.00 32 1024.9
20200219190326 47 331 9.0 23.0 0.00 0.02 0.00 34 1024.9
20200219185319 46 306 13.0 20.0 0.00 0.02 0.00 33 1025.0
20200219184313 47 298 12.0 17.0 0.00 0.02 0.00 34 1025.1
20200219183320 47 293 9.0 19.0 0.00 0.02 0.00 34 1024.9
20200219182312 48 317 9.0 16.0 0.00 0.02 0.00 35 1024.9
20200219181323 48 306 9.0 21.0 0.00 0.02 0.00 37 1024.8
20200219180313 47 328 7.0 13.0 0.00 0.02 0.00 40 1025.0
20200219175326 47 309 11.0 15.0 0.00 0.02 0.00 40 1025.2
20200219174314 47 323 11.0 16.0 0.00 0.02 0.00 38 1025.2
20200219173330 47 315 9.0 17.0 0.00 0.02 0.00 38 1025.3
20200219172323 47 334 9.0 17.0 0.00 0.02 0.00 42 1025.4
20200219171315 46 351 10.0 19.0 0.00 0.02 0.00 40 1025.5
20200219170324 46 344 15.0 23.0 0.00 0.02 0.00 38 1025.7
20200219165325 46 335 10.0 17.0 0.00 0.02 0.00 43 1025.7
20200219164318 45 290 9.0 14.0 0.00 0.02 0.00 45 1025.7
20200219163327 44 323 7.0 16.0 0.00 0.02 0.00 48 1025.9
20200219162320 43 324 10.0 20.0 0.00 0.02 0.00 48 1025.9
20200219161329 42 333 9.0 14.0 0.00 0.02 0.00 47 1025.9
20200219160318 42 318 10.0 13.0 0.00 0.02 0.00 47 1026.0
20200219155312 42 5 8.0 16.0 0.00 0.02 0.00 49 1026.0
20200219154323 41 341 6.0 11.0 0.00 0.02 0.00 52 1026.2
20200219153318 41 282 5.0 11.0 0.00 0.02 0.00 55 1026.1
20200219152312 40 291 7.0 12.0 0.00 0.02 0.00 56 1025.9
20200219151325 40 327 8.0 11.0 0.00 0.02 0.00 58 1025.9
20200219150321 40 288 3.0 14.0 0.00 0.02 0.00 59 1025.7
20200219145330 39 348 8.0 13.0 0.00 0.02 0.00 60 1025.7
20200219144321 39 321 6.0 16.0 0.00 0.02 0.00 63 1025.4
20200219143329 38 302 9.0 16.0 0.00 0.02 0.00 64 1025.6
20200219142318 38 288 9.0 16.0 0.00 0.02 0.00 65 1025.6
20200219141312 37 294 11.0 17.0 0.00 0.02 0.00 66 1025.4
20200219140325 37 322 9.0 15.0 0.00 0.02 0.00 68 1025.6
20200219135318 36 306 7.0 14.0 0.00 0.02 0.00 69 1025.5
20200219134329 36 319 9.0 14.0 0.00 0.02 0.00 68 1025.3
20200219133320 35 339 9.0 14.0 0.00 0.02 0.00 69 1025.3
20200219132318 35 338 10.0 14.0 0.00 0.02 0.00 71 1025.2